Time,TemperatureF,DewpointF,PressureIn,WindDirection,WindDirectionDegrees,WindSpeedMPH,WindSpeedGustMPH,Humidity,HourlyPrecipIn,Conditions,Clouds,dailyrainin,SoftwareType,DateUTC
2013-05-20 00:01:00,54.3,54.5,29.75,SSW,202,2.6,3.7,99,0.00,,,0.00,Rainwise IP-100,2013-05-20 04:01:00,
2013-05-20 00:06:00,54.3,54.5,29.75,SSW,202,2.6,3.0,99,0.00,,,0.00,Rainwise IP-100,2013-05-20 04:06:00,
2013-05-20 00:11:00,54.3,54.5,29.75,SSW,202,1.9,2.8,99,0.00,,,0.00,Rainwise IP-100,2013-05-20 04:11:00,
2013-05-20 00:16:00,54.3,54.5,29.75,SSW,202,0.0,1.9,99,0.00,,,0.00,Rainwise IP-100,2013-05-20 04:16:00,
2013-05-20 00:21:00,54.4,54.5,29.75,SSW,202,0.0,0.0,99,0.00,,,0.00,Rainwise IP-100,2013-05-20 04:21:00,
2013-05-20 00:26:00,54.4,54.5,29.74,SW,225,0.0,2.3,99,0.00,,,0.00,Rainwise IP-100,2013-05-20 04:26:00,
2013-05-20 00:31:00,54.4,54.5,29.73,SSW,202,2.1,4.2,99,0.00,,,0.00,Rainwise IP-100,2013-05-20 04:31:00,
2013-05-20 00:36:00,54.5,54.5,29.74,SSE,157,0.0,4.2,99,0.00,,,0.00,Rainwise IP-100,2013-05-20 04:36:00,
2013-05-20 00:41:00,54.5,54.5,29.74,SSW,202,1.6,1.9,99,0.00,,,0.00,Rainwise IP-100,2013-05-20 04:41:00,
2013-05-20 00:46:00,54.5,54.5,29.74,SSW,202,1.9,6.1,99,0.00,,,0.00,Rainwise IP-100,2013-05-20 04:46:00,
2013-05-20 00:51:00,54.5,54.5,29.73,SSW,202,2.6,4.4,99,0.00,,,0.00,Rainwise IP-100,2013-05-20 04:51:00,
2013-05-20 00:56:00,54.5,54.5,29.73,SSW,202,4.2,5.6,99,0.00,,,0.00,Rainwise IP-100,2013-05-20 04:56:00,
2013-05-20 01:02:00,54.5,54.5,29.72,SSW,202,2.8,7.7,99,0.00,,,0.00,Rainwise IP-100,2013-05-20 05:02:00,
2013-05-20 01:07:00,54.5,54.5,29.72,SW,225,3.3,7.5,99,0.00,,,0.00,Rainwise IP-100,2013-05-20 05:07:00,
2013-05-20 01:12:00,54.5,54.5,29.72,SSW,202,5.6,6.5,99,0.00,,,0.00,Rainwise IP-100,2013-05-20 05:12:00,
2013-05-20 01:17:00,54.5,54.5,29.71,SSW,202,6.3,8.9,99,0.00,,,0.00,Rainwise IP-100,2013-05-20 05:17:00,
2013-05-20 01:22:00,54.5,54.5,29.71,SSW,202,2.1,6.3,99,0.00,,,0.00,Rainwise IP-100,2013-05-20 05:22:00,
2013-05-20 01:27:00,54.4,54.5,29.71,SW,225,3.5,5.8,99,0.06,,,0.01,Rainwise IP-100,2013-05-20 05:27:00,
2013-05-20 01:32:00,54.4,54.5,29.70,SSW,202,3.5,8.2,99,0.06,,,0.01,Rainwise IP-100,2013-05-20 05:32:00,
2013-05-20 01:37:00,54.4,54.5,29.69,WSW,247,2.1,6.1,99,0.00,,,0.01,Rainwise IP-100,2013-05-20 05:37:00,
2013-05-20 01:42:00,54.4,54.5,29.70,SSE,157,3.5,8.2,99,0.00,,,0.01,Rainwise IP-100,2013-05-20 05:42:00,
2013-05-20 01:47:00,54.4,54.5,29.70,SSW,202,3.3,8.6,99,0.06,,,0.02,Rainwise IP-100,2013-05-20 05:47:00,
2013-05-20 01:52:00,54.5,54.5,29.70,SSW,202,4.2,7.5,99,0.06,,,0.02,Rainwise IP-100,2013-05-20 05:52:00,
2013-05-20 01:57:00,54.5,54.5,29.69,SSW,202,4.9,10.7,99,0.00,,,0.02,Rainwise IP-100,2013-05-20 05:57:00,
2013-05-20 02:02:00,54.5,54.5,29.69,SW,225,6.1,7.7,99,0.00,,,0.02,Rainwise IP-100,2013-05-20 06:02:00,
2013-05-20 02:07:00,54.5,54.5,29.69,SW,225,2.3,9.1,99,0.00,,,0.02,Rainwise IP-100,2013-05-20 06:07:00,
2013-05-20 02:12:00,54.5,54.5,29.69,SSW,202,4.0,7.5,99,0.00,,,0.02,Rainwise IP-100,2013-05-20 06:12:00,
2013-05-20 02:18:00,54.5,54.5,29.68,SSW,202,1.9,7.5,99,0.00,,,0.02,Rainwise IP-100,2013-05-20 06:18:00,
2013-05-20 02:23:00,54.6,54.5,29.68,SSW,202,3.0,4.9,99,0.00,,,0.02,Rainwise IP-100,2013-05-20 06:23:00,
2013-05-20 02:28:00,54.5,54.5,29.68,SSW,202,0.0,3.5,99,0.00,,,0.02,Rainwise IP-100,2013-05-20 06:28:00,
2013-05-20 02:33:00,54.5,54.5,29.68,SSE,157,0.0,2.3,99,0.00,,,0.02,Rainwise IP-100,2013-05-20 06:33:00,
2013-05-20 02:38:00,54.5,54.5,29.67,WNW,292,0.0,1.9,99,0.00,,,0.02,Rainwise IP-100,2013-05-20 06:38:00,
2013-05-20 02:43:00,54.5,54.5,29.67,WNW,292,0.0,0.0,99,0.00,,,0.02,Rainwise IP-100,2013-05-20 06:43:00,
2013-05-20 02:48:00,54.5,54.5,29.67,SSW,202,2.6,7.2,99,0.00,,,0.02,Rainwise IP-100,2013-05-20 06:48:00,
2013-05-20 02:53:00,54.5,54.5,29.67,SSW,202,2.1,6.3,99,0.00,,,0.02,Rainwise IP-100,2013-05-20 06:53:00,
2013-05-20 02:58:00,54.5,54.5,29.67,SSW,202,5.1,6.5,99,0.00,,,0.02,Rainwise IP-100,2013-05-20 06:58:00,
2013-05-20 03:00:00,54.5,54.5,29.67,SSW,202,1.4,6.5,99,0.00,,,0.02,Rainwise IP-100,2013-05-20 07:00:00,
2013-05-20 03:05:00,54.5,54.5,29.67,SSW,202,3.0,4.9,99,0.00,,,0.02,Rainwise IP-100,2013-05-20 07:05:00,
2013-05-20 03:10:00,54.5,54.5,29.67,SSE,157,5.6,8.2,99,0.00,,,0.02,Rainwise IP-100,2013-05-20 07:10:00,
2013-05-20 03:15:00,54.5,54.5,29.67,SSW,202,6.3,8.2,99,0.00,,,0.02,Rainwise IP-100,2013-05-20 07:15:00,
2013-05-20 03:20:00,54.5,54.5,29.66,SSW,202,4.4,9.3,99,0.00,,,0.02,Rainwise IP-100,2013-05-20 07:20:00,
2013-05-20 03:26:00,54.6,54.5,29.66,SSE,157,7.2,8.2,99,0.00,,,0.02,Rainwise IP-100,2013-05-20 07:26:00,
2013-05-20 03:31:00,54.6,54.5,29.66,SW,225,3.3,8.2,99,0.00,,,0.02,Rainwise IP-100,2013-05-20 07:31:00,
2013-05-20 03:36:00,54.6,54.5,29.66,SSE,157,1.9,7.0,99,0.00,,,0.02,Rainwise IP-100,2013-05-20 07:36:00,
2013-05-20 03:41:00,54.6,54.5,29.66,SSW,202,0.0,5.1,99,0.00,,,0.02,Rainwise IP-100,2013-05-20 07:41:00,
2013-05-20 03:46:00,54.6,54.5,29.65,SW,225,2.8,6.5,99,0.00,,,0.02,Rainwise IP-100,2013-05-20 07:46:00,
2013-05-20 03:51:00,54.6,54.5,29.65,SSW,202,3.0,3.7,99,0.00,,,0.02,Rainwise IP-100,2013-05-20 07:51:00,
2013-05-20 03:56:00,54.5,54.5,29.65,South,180,4.9,6.8,99,0.00,,,0.02,Rainwise IP-100,2013-05-20 07:56:00,
2013-05-20 04:01:00,54.5,54.5,29.65,SW,225,4.2,8.6,99,0.00,,,0.02,Rainwise IP-100,2013-05-20 08:01:00,
2013-05-20 04:06:00,54.5,54.5,29.65,SSW,202,7.0,7.2,99,0.00,,,0.02,Rainwise IP-100,2013-05-20 08:06:00,
2013-05-20 04:11:00,54.5,54.5,29.64,SSW,202,4.2,7.5,99,0.00,,,0.02,Rainwise IP-100,2013-05-20 08:11:00,
2013-05-20 04:16:00,54.5,54.5,29.64,SSE,157,1.4,5.1,99,0.00,,,0.02,Rainwise IP-100,2013-05-20 08:16:00,
2013-05-20 04:21:00,54.5,54.5,29.63,SSW,202,2.3,4.2,99,0.00,,,0.02,Rainwise IP-100,2013-05-20 08:21:00,
2013-05-20 04:26:00,54.5,54.5,29.63,SSW,202,0.0,4.4,99,0.00,,,0.02,Rainwise IP-100,2013-05-20 08:26:00,
2013-05-20 04:31:00,54.5,54.5,29.62,SSW,202,3.7,3.7,99,0.00,,,0.02,Rainwise IP-100,2013-05-20 08:31:00,
2013-05-20 04:36:00,54.5,54.5,29.62,SSW,202,7.0,8.6,99,0.00,,,0.02,Rainwise IP-100,2013-05-20 08:36:00,
2013-05-20 04:42:00,54.5,54.5,29.62,SSW,202,3.7,7.2,99,0.00,,,0.02,Rainwise IP-100,2013-05-20 08:42:00,
2013-05-20 04:47:00,54.5,54.5,29.62,SSW,202,1.9,6.5,99,0.00,,,0.02,Rainwise IP-100,2013-05-20 08:47:00,
2013-05-20 04:52:00,54.5,54.5,29.62,South,180,3.0,4.9,99,0.00,,,0.02,Rainwise IP-100,2013-05-20 08:52:00,
2013-05-20 04:57:00,54.5,54.5,29.61,SSE,157,0.0,4.7,99,0.00,,,0.02,Rainwise IP-100,2013-05-20 08:57:00,
2013-05-20 05:02:00,54.6,54.5,29.62,ENE,67,0.0,2.1,99,0.00,,,0.02,Rainwise IP-100,2013-05-20 09:02:00,
2013-05-20 05:07:00,54.6,54.5,29.62,NE,45,1.9,2.8,99,0.00,,,0.02,Rainwise IP-100,2013-05-20 09:07:00,
2013-05-20 05:12:00,54.6,54.5,29.62,NE,45,0.0,2.3,99,0.00,,,0.02,Rainwise IP-100,2013-05-20 09:12:00,
2013-05-20 05:17:00,54.6,54.5,29.62,NE,45,0.0,0.0,99,0.00,,,0.02,Rainwise IP-100,2013-05-20 09:17:00,
2013-05-20 05:22:00,54.6,54.5,29.62,NE,45,0.0,0.0,99,0.00,,,0.02,Rainwise IP-100,2013-05-20 09:22:00,
2013-05-20 05:27:00,54.6,54.5,29.62,NE,45,1.2,1.4,100,0.00,,,0.02,Rainwise IP-100,2013-05-20 09:27:00,
2013-05-20 05:32:00,54.6,54.5,29.62,SSW,202,1.6,3.0,100,0.00,,,0.02,Rainwise IP-100,2013-05-20 09:32:00,
2013-05-20 05:37:00,54.5,54.5,29.62,SSW,202,1.9,2.3,100,0.00,,,0.02,Rainwise IP-100,2013-05-20 09:37:00,
2013-05-20 05:42:00,54.5,54.5,29.61,SSW,202,0.0,3.7,100,0.00,,,0.02,Rainwise IP-100,2013-05-20 09:42:00,
2013-05-20 05:47:00,54.5,54.5,29.62,SSW,202,0.0,1.6,100,0.00,,,0.02,Rainwise IP-100,2013-05-20 09:47:00,
2013-05-20 05:52:00,54.5,54.5,29.61,SSW,202,0.0,0.0,100,0.00,,,0.02,Rainwise IP-100,2013-05-20 09:52:00,
2013-05-20 05:58:00,54.5,54.5,29.62,SSW,202,0.0,1.6,100,0.00,,,0.02,Rainwise IP-100,2013-05-20 09:58:00,
2013-05-20 06:03:00,54.6,54.5,29.62,SSW,202,1.4,3.0,100,0.00,,,0.02,Rainwise IP-100,2013-05-20 10:03:00,
2013-05-20 06:08:00,54.6,54.5,29.61,SSW,202,2.6,3.5,100,0.00,,,0.02,Rainwise IP-100,2013-05-20 10:08:00,
2013-05-20 06:13:00,54.6,54.5,29.61,SSE,157,0.0,2.8,100,0.00,,,0.02,Rainwise IP-100,2013-05-20 10:13:00,
2013-05-20 06:18:00,54.8,55.0,29.61,ESE,112,0.0,0.0,100,0.00,,,0.02,Rainwise IP-100,2013-05-20 10:18:00,
2013-05-20 06:23:00,54.9,55.0,29.61,ESE,112,0.0,0.0,100,0.00,,,0.02,Rainwise IP-100,2013-05-20 10:23:00,
2013-05-20 06:28:00,54.8,55.0,29.61,ESE,112,0.0,0.0,100,0.00,,,0.02,Rainwise IP-100,2013-05-20 10:28:00,
2013-05-20 06:33:00,54.9,55.0,29.61,ESE,112,0.0,0.0,100,0.00,,,0.02,Rainwise IP-100,2013-05-20 10:33:00,
2013-05-20 06:38:00,55.1,55.0,29.62,ESE,112,0.0,0.0,100,0.00,,,0.02,Rainwise IP-100,2013-05-20 10:38:00,
2013-05-20 06:43:00,55.1,55.0,29.61,ESE,112,0.0,0.0,100,0.00,,,0.02,Rainwise IP-100,2013-05-20 10:43:00,
2013-05-20 06:48:00,55.1,55.0,29.61,ESE,112,0.0,0.0,100,0.00,,,0.02,Rainwise IP-100,2013-05-20 10:48:00,
2013-05-20 06:53:00,55.2,55.0,29.61,ESE,112,0.0,0.0,100,0.00,,,0.02,Rainwise IP-100,2013-05-20 10:53:00,
2013-05-20 06:58:00,55.4,55.0,29.61,ESE,112,0.0,0.0,100,0.00,,,0.02,Rainwise IP-100,2013-05-20 10:58:00,
2013-05-20 07:03:00,55.4,55.0,29.61,ESE,112,0.0,0.0,100,0.00,,,0.02,Rainwise IP-100,2013-05-20 11:03:00,
2013-05-20 07:08:00,55.5,56.0,29.61,ESE,112,0.0,0.0,100,0.00,,,0.02,Rainwise IP-100,2013-05-20 11:08:00,
2013-05-20 07:14:00,55.6,56.0,29.61,ESE,112,0.0,0.0,100,0.00,,,0.02,Rainwise IP-100,2013-05-20 11:14:00,
2013-05-20 07:19:00,55.7,56.0,29.61,ESE,112,0.0,0.0,100,0.00,,,0.02,Rainwise IP-100,2013-05-20 11:19:00,
2013-05-20 07:24:00,55.7,56.0,29.62,North,360,4.0,4.2,100,0.00,,,0.02,Rainwise IP-100,2013-05-20 11:24:00,
2013-05-20 07:29:00,55.8,56.0,29.62,NNW,337,0.0,5.1,100,0.00,,,0.02,Rainwise IP-100,2013-05-20 11:29:00,
2013-05-20 07:34:00,55.8,56.0,29.62,NNW,337,0.0,0.0,100,0.00,,,0.02,Rainwise IP-100,2013-05-20 11:34:00,
2013-05-20 07:39:00,55.9,56.0,29.62,NNW,337,0.0,0.0,100,0.00,,,0.02,Rainwise IP-100,2013-05-20 11:39:00,
2013-05-20 07:44:00,56.1,56.0,29.61,SSW,202,3.0,4.0,100,0.00,,,0.02,Rainwise IP-100,2013-05-20 11:44:00,
2013-05-20 07:49:00,56.1,56.0,29.62,WNW,292,0.0,3.5,100,0.00,,,0.02,Rainwise IP-100,2013-05-20 11:49:00,
2013-05-20 07:54:00,56.3,56.5,29.62,SSE,157,1.4,2.8,100,0.00,,,0.02,Rainwise IP-100,2013-05-20 11:54:00,
2013-05-20 07:59:00,56.6,56.5,29.62,SSW,202,1.4,2.8,100,0.00,,,0.02,Rainwise IP-100,2013-05-20 11:59:00,
2013-05-20 08:04:00,57.0,57.0,29.62,SSE,157,4.0,4.2,99,0.00,,,0.02,Rainwise IP-100,2013-05-20 12:04:00,
2013-05-20 08:09:00,57.5,57.5,29.61,SSE,157,3.3,4.7,99,0.00,,,0.02,Rainwise IP-100,2013-05-20 12:09:00,
2013-05-20 08:14:00,58.2,57.5,29.62,SSW,202,4.0,4.0,98,0.00,,,0.02,Rainwise IP-100,2013-05-20 12:14:00,
2013-05-20 08:19:00,59.0,59.0,29.61,SSE,157,1.9,4.9,99,0.00,,,0.02,Rainwise IP-100,2013-05-20 12:19:00,
2013-05-20 08:24:00,59.5,59.0,29.61,ESE,112,1.4,4.7,99,0.00,,,0.02,Rainwise IP-100,2013-05-20 12:24:00,
2013-05-20 08:30:00,60.0,59.5,29.61,SSE,157,1.2,4.9,98,0.00,,,0.02,Rainwise IP-100,2013-05-20 12:30:00,
2013-05-20 08:35:00,61.1,60.5,29.61,SSE,157,0.0,4.4,99,0.00,,,0.02,Rainwise IP-100,2013-05-20 12:35:00,
2013-05-20 08:40:00,63.0,62.5,29.62,SW,225,1.6,2.3,99,0.00,,,0.02,Rainwise IP-100,2013-05-20 12:40:00,
2013-05-20 08:45:00,64.1,64.0,29.62,WNW,292,0.0,3.3,100,0.00,,,0.02,Rainwise IP-100,2013-05-20 12:45:00,
2013-05-20 08:50:00,63.6,63.5,29.62,ENE,67,2.8,3.5,100,0.00,,,0.02,Rainwise IP-100,2013-05-20 12:50:00,
2013-05-20 08:55:00,61.5,61.5,29.62,ENE,67,2.1,4.0,100,0.00,,,0.02,Rainwise IP-100,2013-05-20 12:55:00,
2013-05-20 09:00:00,60.3,60.5,29.61,NE,45,2.6,4.0,100,0.00,,,0.02,Rainwise IP-100,2013-05-20 13:00:00,
2013-05-20 09:05:00,60.4,60.0,29.62,NNE,22,2.8,4.9,99,0.00,,,0.02,Rainwise IP-100,2013-05-20 13:05:00,
2013-05-20 09:10:00,61.0,60.5,29.62,NNE,22,1.4,4.7,99,0.00,,,0.02,Rainwise IP-100,2013-05-20 13:10:00,
2013-05-20 09:15:00,62.6,62.0,29.61,SSW,202,0.0,2.1,99,0.00,,,0.02,Rainwise IP-100,2013-05-20 13:15:00,
2013-05-20 09:20:00,62.8,63.0,29.61,ENE,67,3.0,3.3,100,0.00,,,0.02,Rainwise IP-100,2013-05-20 13:20:00,
2013-05-20 09:25:00,61.9,61.5,29.62,ENE,67,2.8,4.4,99,0.00,,,0.02,Rainwise IP-100,2013-05-20 13:25:00,
2013-05-20 09:30:00,61.9,61.5,29.61,NE,45,3.7,4.0,99,0.00,,,0.02,Rainwise IP-100,2013-05-20 13:30:00,
2013-05-20 09:35:00,62.3,62.0,29.61,ENE,67,0.0,4.0,99,0.00,,,0.02,Rainwise IP-100,2013-05-20 13:35:00,
2013-05-20 09:40:00,62.7,62.0,29.61,NNW,337,0.0,2.8,99,0.00,,,0.02,Rainwise IP-100,2013-05-20 13:40:00,
2013-05-20 09:46:00,63.1,63.0,29.61,North,360,2.6,3.3,100,0.00,,,0.02,Rainwise IP-100,2013-05-20 13:46:00,
2013-05-20 09:51:00,63.1,62.5,29.62,NNW,337,1.6,4.0,98,0.00,,,0.02,Rainwise IP-100,2013-05-20 13:51:00,
2013-05-20 09:56:00,63.2,62.0,29.61,NW,315,0.0,2.6,97,0.00,,,0.02,Rainwise IP-100,2013-05-20 13:56:00,
2013-05-20 10:01:00,63.3,63.0,29.62,WNW,292,0.0,0.0,98,0.00,,,0.02,Rainwise IP-100,2013-05-20 14:01:00,
2013-05-20 10:06:00,63.6,63.0,29.62,WSW,247,1.6,1.6,99,0.00,,,0.02,Rainwise IP-100,2013-05-20 14:06:00,
2013-05-20 10:11:00,63.5,63.0,29.61,ESE,112,2.1,2.1,99,0.00,,,0.02,Rainwise IP-100,2013-05-20 14:11:00,
2013-05-20 10:16:00,62.7,62.0,29.62,ESE,112,0.0,2.8,98,0.00,,,0.02,Rainwise IP-100,2013-05-20 14:16:00,
2013-05-20 10:21:00,63.3,63.0,29.62,SSW,202,0.0,2.1,98,0.00,,,0.02,Rainwise IP-100,2013-05-20 14:21:00,
2013-05-20 10:26:00,63.1,62.5,29.61,SSE,157,0.0,3.0,99,0.00,,,0.02,Rainwise IP-100,2013-05-20 14:26:00,
2013-05-20 10:31:00,62.6,62.0,29.61,WSW,247,1.4,1.4,99,0.00,,,0.02,Rainwise IP-100,2013-05-20 14:31:00,
2013-05-20 10:36:00,62.7,62.0,29.61,SSW,202,0.0,2.3,99,0.00,,,0.02,Rainwise IP-100,2013-05-20 14:36:00,
2013-05-20 10:41:00,62.9,63.0,29.62,South,180,0.0,1.6,100,0.00,,,0.02,Rainwise IP-100,2013-05-20 14:41:00,
2013-05-20 10:46:00,63.0,63.0,29.61,South,180,0.0,2.1,100,0.00,,,0.02,Rainwise IP-100,2013-05-20 14:46:00,
2013-05-20 10:51:00,63.4,63.5,29.61,South,180,0.0,1.4,100,0.00,,,0.02,Rainwise IP-100,2013-05-20 14:51:00,
2013-05-20 10:56:00,63.5,63.5,29.61,SSW,202,1.2,5.6,100,0.00,,,0.02,Rainwise IP-100,2013-05-20 14:56:00,
2013-05-20 11:02:00,63.2,62.5,29.61,East,90,1.9,3.3,99,0.00,,,0.02,Rainwise IP-100,2013-05-20 15:02:00,
2013-05-20 11:07:00,63.3,63.0,29.60,SSW,202,1.6,2.6,99,0.00,,,0.02,Rainwise IP-100,2013-05-20 15:07:00,
2013-05-20 11:12:00,64.2,63.5,29.60,SSE,157,1.9,3.0,99,0.00,,,0.02,Rainwise IP-100,2013-05-20 15:12:00,
2013-05-20 11:17:00,64.8,65.0,29.59,SSE,157,1.4,4.0,100,0.00,,,0.02,Rainwise IP-100,2013-05-20 15:17:00,
2013-05-20 11:22:00,64.9,64.5,29.59,SSW,202,1.2,4.0,99,0.00,,,0.02,Rainwise IP-100,2013-05-20 15:22:00,
2013-05-20 11:27:00,65.3,65.0,29.58,SW,225,2.3,4.2,99,0.00,,,0.02,Rainwise IP-100,2013-05-20 15:27:00,
2013-05-20 11:32:00,65.8,65.5,29.58,SW,225,2.1,3.7,98,0.00,,,0.02,Rainwise IP-100,2013-05-20 15:32:00,
2013-05-20 11:37:00,66.0,64.5,29.58,SSW,202,5.4,7.5,96,0.00,,,0.02,Rainwise IP-100,2013-05-20 15:37:00,
2013-05-20 11:42:00,66.1,64.0,29.57,WSW,247,0.0,6.5,94,0.00,,,0.02,Rainwise IP-100,2013-05-20 15:42:00,
2013-05-20 11:47:00,67.0,65.5,29.58,SSW,202,1.2,3.7,94,0.00,,,0.02,Rainwise IP-100,2013-05-20 15:47:00,
2013-05-20 11:52:00,67.9,66.7,29.57,SE,135,1.4,3.7,95,0.00,,,0.02,Rainwise IP-100,2013-05-20 15:52:00,
2013-05-20 11:57:00,68.6,67.0,29.57,SSW,202,0.0,2.8,96,0.00,,,0.02,Rainwise IP-100,2013-05-20 15:57:00,
2013-05-20 12:02:00,69.3,68.5,29.57,SSE,157,1.4,2.3,97,0.00,,,0.02,Rainwise IP-100,2013-05-20 16:02:00,
2013-05-20 12:07:00,68.9,67.0,29.57,SE,135,0.0,4.4,95,0.00,,,0.02,Rainwise IP-100,2013-05-20 16:07:00,
2013-05-20 12:12:00,68.6,66.3,29.57,SSW,202,1.9,3.7,93,0.00,,,0.02,Rainwise IP-100,2013-05-20 16:12:00,
2013-05-20 12:18:00,69.1,67.0,29.57,SSW,202,0.0,2.8,94,0.00,,,0.02,Rainwise IP-100,2013-05-20 16:18:00,
2013-05-20 12:23:00,68.8,66.7,29.57,ENE,67,4.4,4.4,93,0.00,,,0.02,Rainwise IP-100,2013-05-20 16:23:00,
2013-05-20 12:28:00,67.6,64.5,29.57,ENE,67,2.8,4.7,90,0.00,,,0.02,Rainwise IP-100,2013-05-20 16:28:00,
2013-05-20 12:33:00,66.9,63.0,29.57,ENE,67,2.3,4.0,86,0.00,,,0.02,Rainwise IP-100,2013-05-20 16:33:00,
2013-05-20 12:38:00,67.3,63.0,29.57,East,90,2.8,3.7,85,0.00,,,0.02,Rainwise IP-100,2013-05-20 16:38:00,
2013-05-20 12:43:00,67.8,63.0,29.57,SSE,157,1.2,3.3,84,0.00,,,0.02,Rainwise IP-100,2013-05-20 16:43:00,
2013-05-20 12:48:00,68.6,63.0,29.56,South,180,0.0,2.3,83,0.00,,,0.02,Rainwise IP-100,2013-05-20 16:48:00,
2013-05-20 12:53:00,69.5,64.0,29.57,ENE,67,1.6,1.6,82,0.00,,,0.02,Rainwise IP-100,2013-05-20 16:53:00,
2013-05-20 12:58:00,68.9,63.0,29.57,NE,45,0.0,4.4,81,0.00,,,0.02,Rainwise IP-100,2013-05-20 16:58:00,
2013-05-20 13:03:00,68.2,61.5,29.56,ENE,67,3.0,4.0,80,0.00,,,0.02,Rainwise IP-100,2013-05-20 17:03:00,
2013-05-20 13:08:00,68.1,61.5,29.57,NE,45,1.4,4.4,80,0.00,,,0.02,Rainwise IP-100,2013-05-20 17:08:00,
2013-05-20 13:13:00,68.1,61.5,29.57,NE,45,1.4,2.6,80,0.00,,,0.02,Rainwise IP-100,2013-05-20 17:13:00,
2013-05-20 13:18:00,68.7,62.0,29.57,SSW,202,1.9,1.9,80,0.00,,,0.02,Rainwise IP-100,2013-05-20 17:18:00,
2013-05-20 13:23:00,69.2,62.5,29.56,ENE,67,1.9,8.4,79,0.06,,,0.03,Rainwise IP-100,2013-05-20 17:23:00,
2013-05-20 13:28:00,69.5,62.5,29.56,WNW,292,1.9,3.7,78,0.06,,,0.03,Rainwise IP-100,2013-05-20 17:28:00,
2013-05-20 13:34:00,69.9,63.0,29.56,NE,45,3.0,3.7,78,0.00,,,0.03,Rainwise IP-100,2013-05-20 17:34:00,
2013-05-20 13:39:00,70.1,63.0,29.57,WNW,292,2.3,3.3,78,0.00,,,0.03,Rainwise IP-100,2013-05-20 17:39:00,
2013-05-20 13:44:00,70.2,62.5,29.57,NNW,337,4.2,7.5,77,0.00,,,0.03,Rainwise IP-100,2013-05-20 17:44:00,
2013-05-20 13:49:00,70.2,62.0,29.57,SSW,202,0.0,5.6,76,0.00,,,0.03,Rainwise IP-100,2013-05-20 17:49:00,
2013-05-20 13:54:00,70.2,62.0,29.56,ENE,67,0.0,2.8,75,0.00,,,0.03,Rainwise IP-100,2013-05-20 17:54:00,
2013-05-20 13:59:00,70.4,62.0,29.56,SSW,202,2.6,5.1,75,0.00,,,0.03,Rainwise IP-100,2013-05-20 17:59:00,
2013-05-20 14:04:00,70.5,62.0,29.56,SSW,202,3.5,8.6,75,0.00,,,0.03,Rainwise IP-100,2013-05-20 18:04:00,
2013-05-20 14:09:00,70.5,62.0,29.56,WSW,247,2.3,5.6,74,0.00,,,0.03,Rainwise IP-100,2013-05-20 18:09:00,
2013-05-20 14:14:00,70.6,61.5,29.56,West,270,4.0,6.3,73,0.00,,,0.03,Rainwise IP-100,2013-05-20 18:14:00,
2013-05-20 14:19:00,70.6,61.5,29.56,WSW,247,0.0,4.9,73,0.00,,,0.03,Rainwise IP-100,2013-05-20 18:19:00,
2013-05-20 14:24:00,70.7,61.5,29.56,SSE,157,3.3,3.3,73,0.00,,,0.03,Rainwise IP-100,2013-05-20 18:24:00,
2013-05-20 14:29:00,70.7,61.5,29.56,SSW,202,2.3,3.5,73,0.00,,,0.03,Rainwise IP-100,2013-05-20 18:29:00,
2013-05-20 14:34:00,70.6,61.5,29.56,WSW,247,5.6,5.6,73,0.00,,,0.03,Rainwise IP-100,2013-05-20 18:34:00,
2013-05-20 14:39:00,70.4,61.5,29.56,SSE,157,3.3,6.8,73,0.00,,,0.03,Rainwise IP-100,2013-05-20 18:39:00,
2013-05-20 14:44:00,70.1,61.5,29.56,SSE,157,2.8,4.2,74,0.00,,,0.03,Rainwise IP-100,2013-05-20 18:44:00,
2013-05-20 14:50:00,70.1,61.5,29.55,SSE,157,0.0,4.0,74,0.00,,,0.03,Rainwise IP-100,2013-05-20 18:50:00,
2013-05-20 14:55:00,70.3,62.0,29.55,SW,225,0.0,5.1,74,0.00,,,0.03,Rainwise IP-100,2013-05-20 18:55:00,
2013-05-20 15:00:00,70.4,62.0,29.55,SSE,157,0.0,2.6,75,0.00,,,0.03,Rainwise IP-100,2013-05-20 19:00:00,
2013-05-20 15:05:00,70.6,62.0,29.55,ESE,112,1.6,3.0,75,0.00,,,0.03,Rainwise IP-100,2013-05-20 19:05:00,
2013-05-20 15:10:00,70.5,62.0,29.54,SSE,157,1.2,4.2,75,0.00,,,0.03,Rainwise IP-100,2013-05-20 19:10:00,
2013-05-20 15:15:00,70.6,62.0,29.55,ESE,112,0.0,3.5,75,0.00,,,0.03,Rainwise IP-100,2013-05-20 19:15:00,
2013-05-20 15:20:00,71.1,62.0,29.54,NE,45,0.0,3.7,74,0.00,,,0.03,Rainwise IP-100,2013-05-20 19:20:00,
2013-05-20 15:25:00,71.1,61.5,29.55,SSE,157,0.0,3.3,73,0.00,,,0.03,Rainwise IP-100,2013-05-20 19:25:00,
2013-05-20 15:30:00,71.2,62.0,29.55,NNW,337,2.6,2.6,73,0.00,,,0.03,Rainwise IP-100,2013-05-20 19:30:00,
2013-05-20 15:35:00,70.7,61.5,29.54,NE,45,3.5,5.1,73,0.00,,,0.03,Rainwise IP-100,2013-05-20 19:35:00,
2013-05-20 15:40:00,69.7,61.5,29.54,NNE,22,0.0,4.0,75,0.00,,,0.03,Rainwise IP-100,2013-05-20 19:40:00,
2013-05-20 15:45:00,69.2,61.5,29.54,NNE,22,2.1,4.9,76,0.00,,,0.03,Rainwise IP-100,2013-05-20 19:45:00,
2013-05-20 15:50:00,69.1,61.5,29.54,NE,45,1.4,3.5,77,0.00,,,0.03,Rainwise IP-100,2013-05-20 19:50:00,
2013-05-20 15:55:00,68.8,62.0,29.54,NNE,22,1.4,4.0,79,0.00,,,0.03,Rainwise IP-100,2013-05-20 19:55:00,
2013-05-20 16:00:00,68.8,62.5,29.54,NNE,22,0.0,3.7,80,0.00,,,0.03,Rainwise IP-100,2013-05-20 20:00:00,
2013-05-20 16:06:00,68.9,62.5,29.55,NNE,22,0.0,4.2,80,0.00,,,0.03,Rainwise IP-100,2013-05-20 20:06:00,
2013-05-20 16:11:00,68.8,62.5,29.54,NNE,22,3.0,4.2,80,0.00,,,0.03,Rainwise IP-100,2013-05-20 20:11:00,
2013-05-20 16:16:00,68.6,62.0,29.55,NNE,22,2.3,4.4,80,0.00,,,0.03,Rainwise IP-100,2013-05-20 20:16:00,
2013-05-20 16:21:00,68.4,62.5,29.55,ENE,67,4.7,4.9,81,0.00,,,0.03,Rainwise IP-100,2013-05-20 20:21:00,
2013-05-20 16:26:00,67.8,62.5,29.55,NNE,22,4.0,8.2,82,0.00,,,0.03,Rainwise IP-100,2013-05-20 20:26:00,
2013-05-20 16:31:00,67.3,62.0,29.56,ENE,67,1.6,6.5,83,0.00,,,0.03,Rainwise IP-100,2013-05-20 20:31:00,
2013-05-20 16:36:00,67.1,62.0,29.56,NW,315,2.3,7.9,83,0.00,,,0.03,Rainwise IP-100,2013-05-20 20:36:00,
2013-05-20 16:41:00,67.1,62.0,29.56,NNE,22,5.1,6.5,84,0.00,,,0.03,Rainwise IP-100,2013-05-20 20:41:00,
2013-05-20 16:46:00,67.1,62.0,29.56,NNE,22,2.8,6.1,84,0.00,,,0.03,Rainwise IP-100,2013-05-20 20:46:00,
2013-05-20 16:51:00,67.1,62.0,29.56,North,360,4.4,6.1,84,0.00,,,0.03,Rainwise IP-100,2013-05-20 20:51:00,
2013-05-20 16:56:00,67.0,62.0,29.57,NNE,22,2.1,6.1,84,0.00,,,0.03,Rainwise IP-100,2013-05-20 20:56:00,
2013-05-20 17:01:00,67.0,62.5,29.57,ENE,67,4.2,5.6,85,0.00,,,0.03,Rainwise IP-100,2013-05-20 21:01:00,
2013-05-20 17:06:00,66.9,62.5,29.56,NNE,22,2.6,5.8,85,0.00,,,0.03,Rainwise IP-100,2013-05-20 21:06:00,
2013-05-20 17:11:00,66.7,62.0,29.57,NNE,22,2.6,5.6,85,0.00,,,0.03,Rainwise IP-100,2013-05-20 21:11:00,
2013-05-20 17:16:00,66.7,62.5,29.57,NNW,337,2.3,4.9,86,0.00,,,0.03,Rainwise IP-100,2013-05-20 21:16:00,
2013-05-20 17:22:00,66.7,62.5,29.56,North,360,2.8,4.2,86,0.00,,,0.03,Rainwise IP-100,2013-05-20 21:22:00,
2013-05-20 17:27:00,66.8,62.5,29.56,NE,45,3.3,4.2,86,0.00,,,0.03,Rainwise IP-100,2013-05-20 21:27:00,
2013-05-20 17:32:00,66.8,62.5,29.56,NNE,22,2.3,4.9,86,0.00,,,0.03,Rainwise IP-100,2013-05-20 21:32:00,
2013-05-20 17:37:00,66.9,63.0,29.56,North,360,3.0,4.4,86,0.00,,,0.03,Rainwise IP-100,2013-05-20 21:37:00,
2013-05-20 17:42:00,67.1,62.5,29.56,ENE,67,1.4,4.4,85,0.00,,,0.03,Rainwise IP-100,2013-05-20 21:42:00,
2013-05-20 17:47:00,67.2,62.5,29.56,NNE,22,2.3,4.7,85,0.00,,,0.03,Rainwise IP-100,2013-05-20 21:47:00,
2013-05-20 17:52:00,67.5,62.5,29.56,NE,45,2.3,3.7,84,0.00,,,0.03,Rainwise IP-100,2013-05-20 21:52:00,
2013-05-20 17:57:00,67.8,63.0,29.56,ENE,67,4.2,4.2,84,0.00,,,0.03,Rainwise IP-100,2013-05-20 21:57:00,
2013-05-20 18:02:00,67.4,62.5,29.55,NE,45,3.3,5.6,84,0.00,,,0.03,Rainwise IP-100,2013-05-20 22:02:00,
2013-05-20 18:07:00,67.3,62.5,29.56,NNE,22,1.6,4.2,84,0.00,,,0.03,Rainwise IP-100,2013-05-20 22:07:00,
2013-05-20 18:12:00,67.7,62.5,29.56,NNW,337,0.0,3.7,84,0.00,,,0.03,Rainwise IP-100,2013-05-20 22:12:00,
2013-05-20 18:17:00,68.2,63.0,29.55,NNE,22,2.1,3.0,84,0.00,,,0.03,Rainwise IP-100,2013-05-20 22:17:00,
2013-05-20 18:22:00,68.2,62.5,29.55,NNE,22,3.7,4.4,83,0.00,,,0.03,Rainwise IP-100,2013-05-20 22:22:00,
2013-05-20 18:27:00,68.0,62.5,29.55,ENE,67,2.3,4.0,83,0.00,,,0.03,Rainwise IP-100,2013-05-20 22:27:00,
2013-05-20 18:32:00,67.8,62.5,29.56,NE,45,3.5,4.7,83,0.00,,,0.03,Rainwise IP-100,2013-05-20 22:32:00,
2013-05-20 18:38:00,67.6,62.0,29.55,NNE,22,2.6,5.8,83,0.00,,,0.03,Rainwise IP-100,2013-05-20 22:38:00,
2013-05-20 18:43:00,67.5,62.5,29.56,North,360,2.1,4.0,84,0.00,,,0.03,Rainwise IP-100,2013-05-20 22:43:00,
2013-05-20 18:48:00,67.3,62.5,29.56,NNE,22,4.0,4.9,84,0.00,,,0.03,Rainwise IP-100,2013-05-20 22:48:00,
2013-05-20 18:53:00,67.2,62.5,29.56,NNE,22,1.4,4.0,85,0.00,,,0.03,Rainwise IP-100,2013-05-20 22:53:00,
2013-05-20 18:58:00,67.0,62.5,29.57,NNE,22,0.0,2.6,85,0.00,,,0.03,Rainwise IP-100,2013-05-20 22:58:00,
2013-05-20 19:03:00,67.0,62.5,29.57,NNW,337,0.0,3.7,85,0.00,,,0.03,Rainwise IP-100,2013-05-20 23:03:00,
2013-05-20 19:08:00,66.8,62.0,29.56,NNE,22,1.2,2.1,85,0.00,,,0.03,Rainwise IP-100,2013-05-20 23:08:00,
2013-05-20 19:13:00,66.5,62.5,29.57,NNE,22,1.6,3.7,86,0.00,,,0.03,Rainwise IP-100,2013-05-20 23:13:00,
2013-05-20 19:18:00,66.3,62.5,29.56,NE,45,2.8,3.5,87,0.00,,,0.03,Rainwise IP-100,2013-05-20 23:18:00,
2013-05-20 19:23:00,66.2,62.5,29.56,North,360,1.9,5.1,87,0.00,,,0.03,Rainwise IP-100,2013-05-20 23:23:00,
2013-05-20 19:28:00,66.2,62.5,29.57,North,360,1.4,3.5,88,0.00,,,0.03,Rainwise IP-100,2013-05-20 23:28:00,
2013-05-20 19:33:00,66.2,62.5,29.57,NNW,337,3.5,3.7,88,0.00,,,0.03,Rainwise IP-100,2013-05-20 23:33:00,
2013-05-20 19:38:00,66.1,62.0,29.57,NNW,337,1.2,4.7,88,0.00,,,0.03,Rainwise IP-100,2013-05-20 23:38:00,
2013-05-20 19:43:00,66.0,62.0,29.56,NNW,337,2.6,4.9,88,0.00,,,0.03,Rainwise IP-100,2013-05-20 23:43:00,
2013-05-20 19:48:00,65.7,62.0,29.55,North,360,3.0,4.2,89,0.00,,,0.03,Rainwise IP-100,2013-05-20 23:48:00,
2013-05-20 19:54:00,65.4,62.0,29.56,NNW,337,2.6,5.8,89,0.00,,,0.03,Rainwise IP-100,2013-05-20 23:54:00,
2013-05-20 19:59:00,65.3,62.5,29.56,NNE,22,2.8,4.0,90,0.00,,,0.03,Rainwise IP-100,2013-05-20 23:59:00,
2013-05-20 20:04:00,65.2,62.0,29.56,NNW,337,0.0,3.0,90,0.00,,,0.03,Rainwise IP-100,2013-05-21 00:04:00,
2013-05-20 20:09:00,64.9,62.0,29.56,WSW,247,0.0,2.8,91,0.00,,,0.03,Rainwise IP-100,2013-05-21 00:09:00,
2013-05-20 20:14:00,64.5,62.0,29.56,WSW,247,2.1,3.7,91,0.00,,,0.03,Rainwise IP-100,2013-05-21 00:14:00,
2013-05-20 20:19:00,64.1,61.5,29.56,WSW,247,0.0,3.3,92,0.00,,,0.03,Rainwise IP-100,2013-05-21 00:19:00,
2013-05-20 20:24:00,63.7,61.5,29.57,WSW,247,0.0,0.0,93,0.00,,,0.03,Rainwise IP-100,2013-05-21 00:24:00,
2013-05-20 20:29:00,63.3,61.5,29.57,WSW,247,0.0,0.0,94,0.00,,,0.03,Rainwise IP-100,2013-05-21 00:29:00,
2013-05-20 20:34:00,62.9,61.5,29.57,WSW,247,0.0,1.2,94,0.00,,,0.03,Rainwise IP-100,2013-05-21 00:34:00,
2013-05-20 20:39:00,62.7,61.0,29.57,WSW,247,0.0,1.4,94,0.00,,,0.03,Rainwise IP-100,2013-05-21 00:39:00,
2013-05-20 20:44:00,62.6,61.0,29.57,WSW,247,0.0,1.6,95,0.00,,,0.03,Rainwise IP-100,2013-05-21 00:44:00,
2013-05-20 20:49:00,62.5,61.5,29.57,NW,315,2.8,3.0,96,0.00,,,0.03,Rainwise IP-100,2013-05-21 00:49:00,
2013-05-20 20:54:00,62.4,61.5,29.57,NNW,337,0.0,3.5,96,0.00,,,0.03,Rainwise IP-100,2013-05-21 00:54:00,
2013-05-20 20:59:00,62.2,61.0,29.57,NNW,337,0.0,0.0,97,0.00,,,0.03,Rainwise IP-100,2013-05-21 00:59:00,
2013-05-20 21:05:00,61.9,61.0,29.58,NNW,337,0.0,1.4,97,0.00,,,0.03,Rainwise IP-100,2013-05-21 01:05:00,
2013-05-20 21:10:00,61.7,60.5,29.57,SSW,202,2.3,2.3,97,0.00,,,0.03,Rainwise IP-100,2013-05-21 01:10:00,
2013-05-20 21:15:00,61.6,60.5,29.57,SSW,202,0.0,4.0,97,0.00,,,0.03,Rainwise IP-100,2013-05-21 01:15:00,
2013-05-20 21:20:00,61.6,60.5,29.58,SSW,202,0.0,1.2,97,0.00,,,0.03,Rainwise IP-100,2013-05-21 01:20:00,
2013-05-20 21:25:00,61.6,60.5,29.57,SSW,202,0.0,1.4,97,0.00,,,0.03,Rainwise IP-100,2013-05-21 01:25:00,
2013-05-20 21:30:00,61.6,61.0,29.57,SSW,202,0.0,0.0,98,0.00,,,0.03,Rainwise IP-100,2013-05-21 01:30:00,
2013-05-20 21:35:00,61.4,61.0,29.57,SSW,202,0.0,0.0,98,0.00,,,0.03,Rainwise IP-100,2013-05-21 01:35:00,
2013-05-20 21:40:00,61.1,60.5,29.58,SSW,202,0.0,0.0,98,0.00,,,0.03,Rainwise IP-100,2013-05-21 01:40:00,
2013-05-20 21:45:00,60.8,60.5,29.58,NNW,337,0.0,2.1,98,0.00,,,0.03,Rainwise IP-100,2013-05-21 01:45:00,
2013-05-20 21:50:00,60.7,60.0,29.58,NNW,337,0.0,3.3,98,0.00,,,0.03,Rainwise IP-100,2013-05-21 01:50:00,
2013-05-20 21:55:00,60.5,60.0,29.57,NNW,337,0.0,0.0,98,0.00,,,0.03,Rainwise IP-100,2013-05-21 01:55:00,
2013-05-20 22:00:00,60.4,60.0,29.58,NNW,337,2.3,3.7,98,0.00,,,0.03,Rainwise IP-100,2013-05-21 02:00:00,
2013-05-20 22:05:00,60.3,60.0,29.57,NNW,337,2.6,3.3,99,0.00,,,0.03,Rainwise IP-100,2013-05-21 02:05:00,
2013-05-20 22:10:00,60.2,59.5,29.57,NNW,337,2.6,4.0,99,0.00,,,0.03,Rainwise IP-100,2013-05-21 02:10:00,
2013-05-20 22:15:00,60.0,59.5,29.57,NNW,337,2.1,4.9,99,0.00,,,0.03,Rainwise IP-100,2013-05-21 02:15:00,
2013-05-20 22:21:00,59.9,59.5,29.58,North,360,3.0,4.4,99,0.00,,,0.03,Rainwise IP-100,2013-05-21 02:21:00,
2013-05-20 22:26:00,59.9,59.5,29.57,NNW,337,2.1,3.5,99,0.00,,,0.03,Rainwise IP-100,2013-05-21 02:26:00,
2013-05-20 22:31:00,59.9,59.5,29.57,NNW,337,0.0,3.0,99,0.00,,,0.03,Rainwise IP-100,2013-05-21 02:31:00,
2013-05-20 22:36:00,59.8,59.5,29.58,NE,45,1.9,4.0,99,0.00,,,0.03,Rainwise IP-100,2013-05-21 02:36:00,
2013-05-20 22:41:00,59.7,59.0,29.57,NE,45,0.0,3.3,99,0.00,,,0.03,Rainwise IP-100,2013-05-21 02:41:00,
2013-05-20 22:46:00,59.7,59.0,29.58,NNW,337,3.3,3.3,99,0.00,,,0.03,Rainwise IP-100,2013-05-21 02:46:00,
2013-05-20 22:51:00,59.6,59.0,29.58,NNE,22,0.0,3.3,99,0.00,,,0.03,Rainwise IP-100,2013-05-21 02:51:00,
2013-05-20 22:56:00,59.4,59.0,29.58,NNE,22,1.2,1.6,99,0.00,,,0.03,Rainwise IP-100,2013-05-21 02:56:00,
2013-05-20 23:01:00,59.3,59.0,29.58,SSW,202,2.1,3.5,99,0.00,,,0.03,Rainwise IP-100,2013-05-21 03:01:00,
2013-05-20 23:06:00,59.2,59.0,29.58,SSW,202,2.1,3.5,99,0.00,,,0.03,Rainwise IP-100,2013-05-21 03:06:00,
2013-05-20 23:11:00,59.1,59.0,29.58,SSW,202,1.4,2.3,99,0.00,,,0.03,Rainwise IP-100,2013-05-21 03:11:00,
2013-05-20 23:16:00,59.0,59.0,29.58,SSW,202,0.0,1.4,99,0.00,,,0.03,Rainwise IP-100,2013-05-21 03:16:00,
2013-05-20 23:21:00,58.9,59.0,29.57,SSW,202,2.3,2.6,99,0.00,,,0.03,Rainwise IP-100,2013-05-21 03:21:00,
2013-05-20 23:26:00,58.7,59.0,29.57,SSW,202,2.1,2.6,99,0.00,,,0.03,Rainwise IP-100,2013-05-21 03:26:00,
2013-05-20 23:31:00,58.6,59.0,29.57,SSW,202,0.0,2.6,99,0.00,,,0.03,Rainwise IP-100,2013-05-21 03:31:00,
2013-05-20 23:37:00,58.6,59.0,29.58,WSW,247,1.4,1.9,99,0.00,,,0.03,Rainwise IP-100,2013-05-21 03:37:00,
2013-05-20 23:42:00,58.6,59.0,29.58,WSW,247,0.0,1.9,100,0.00,,,0.03,Rainwise IP-100,2013-05-21 03:42:00,
2013-05-20 23:47:00,58.4,58.0,29.58,NNW,337,1.4,0.0,100,0.00,,,0.03,Rainwise IP-100,2013-05-21 03:47:00,
2013-05-20 23:52:00,58.1,58.0,29.58,NNW,337,0.0,2.8,100,0.00,,,0.03,Rainwise IP-100,2013-05-21 03:52:00,
2013-05-20 23:57:00,58.1,58.0,29.58,NNW,337,1.9,1.9,100,0.00,,,0.03,Rainwise IP-100,2013-05-21 03:57:00,